Tracking 18844 objects as of 21-Nov-2017
HD Live streaming from Space Station
objects crossing your sky now

INTELSAT 905

Track INTELSAT 905 now!
INTELSAT 905 is classified as:


NORAD ID: 27438
Int'l Code: 2002-027A
Perigee: 35,785.3 km
Apogee: 35,801.9 km
Inclination: 0.0 °
Period: 1,436.1 minutes
Semi major axis: 42164 km
RCS: 11.535 m2 (large)
Launch date: June 5, 2002
Source: International Telecommunications Satellite Organization (ITSO)
Launch site: FRENCH GUIANA (FRGUI)

76 C-band, 22 Ku-band, broadcasting, business services, direct-to-home TV broadcasting, telecommunications, VSAT networks; Atlantic Ocean region.
aabbcc
Your satellite tracking list
Your tracking list is empty




NASA's NSSDC Master Catalog

Two Line Element Set (TLE):
1 27438U 02027A   17325.09652274 -.00000180  00000-0  00000+0 0  9997
2 27438   0.0144 269.2230 0001964 308.9063 212.4421  1.00272212 56574
Source of the keplerian elements: AFSPC